Air Resources Laboratory banner image
Air Resources Laboratory web site National Oceanic and Atmospheric Administration (NOAA)

pa zone


SCZ050-WAZ558-NCZ071-TXZ119-213-PAZ071-DCZ001-FLZ074-172-MI076-
NYZ176-178-MAZ016-IL014-TNZ027-NJZ106-GAZ044-MD014-191200-

...Gateway Observations for Charleston International...

CITY           SKY/WX    TMP DP  RH WIND       PRES   REMARKS
Chas Airport   MOCLDY    56  51  84 N9        30.30S
Seattle        CLEAR     47  43  86 CALM      30.24S
Charlotte      FAIR      43  42  97 N6        30.37S
Dallas DFW     CLOUDY    57  54  89 NE3       30.21R
Dallas Love    CLOUDY    59  55  87 N3        30.22R
Philladelphia  FAIR      42  38  85 SW6       30.36S
Wash National  FAIR      45  39  79 SW3       30.38F
Baltimore      FAIR      36  35  96 CALM      30.37S
Miami          FAIR      78  75  90 E8        30.12R
Detroit        FAIR      40  30  67 S8        30.22F WCI  34
Newark         FAIR      35  31  85 SW5       30.32S WCI  31
Laguardia      FAIR      47  31  53 SW8       30.30S
J F K          FAIR      44  36  73 W10       30.33R
Boston Logan   FAIR      38  27  64 SW13      30.24S WCI  30
Ft. Lauderdale FAIR      79  74  84 E10       30.11R
Chicago O'Hare MOCLDY    46  31  55 SW14      30.16F
Chicago Midway CLOUDY    46  30  53 SW9G21    30.18F
Houston Bush   CLOUDY    65  60  84 NE6       30.15S
Houston Hobby  MOCLDY    66  59  78 NE6       30.13S
Nashville      FAIR      41  38  89 CALM      30.31S
Atlanta        MOCLDY    53  45  74 E9        30.32S


GAZ044-118-TXZ119-213-NCZ071-DCZ001-MDZ014-506-PAZ021-071-NJZ106-
NYZ176-178-MAZ106-OHZ011-021-055-MIZ076-KYZ091-ILZ014-INZ047-
MNZ060-ONZ431-191200-

...Gateway Observations for Savannah International...

CITY           SKY/WX    TMP DP  RH WIND       PRES   REMARKS
Savannah Arpt  CLOUDY    63  53  70 NE8       30.28S
Atlanta        MOCLDY    53  45  74 E9        30.32S
Charlotte      FAIR      43  42  97 N6        30.37S
Dallas DFW     CLOUDY    57  54  89 NE3       30.21R
Houston Bush   CLOUDY    65  60  84 NE6       30.15S
Wash National  FAIR      45  39  79 SW3       30.38F
Wash Dulles    FAIR      35  34  96 CALM      30.37S
Baltimore      FAIR      36  35  96 CALM      30.37S
Philadelphia   FAIR      42  38  85 SW6       30.36S
Newark         FAIR      35  31  85 SW5       30.32S WCI  31
Laguardia      FAIR      47  31  53 SW8       30.30S
J F K          FAIR      44  36  73 W10       30.33R
Boston         FAIR      38  27  64 SW13      30.24S WCI  30
Pittsburg      FAIR      33  29  85 CALM      30.32S
Akron          FAIR      35  27  72 S7        30.30F WCI  29
Cleveland      FAIR      41  31  67 SW10      30.29F
Cincinnati     FAIR      34  31  88 CALM      30.31F
Columbus       FAIR      31  29  95 CALM      30.32F
Detroit        FAIR      40  30  67 S8        30.22F WCI  34
Chicago O'Hare MOCLDY    46  31  55 SW14      30.16F
Minneapolis    FAIR      54  47  77 SW10G21   29.85F
Indianapolis   FAIR      38  36  92 CALM      30.28F
Toronto Canada PTCLDY    43  32  65 SW12G18   30.11F


PAZ037-192000-
Tioga-
Including the cities of Mansfield and Wellsboro
715 AM EDT Fri Oct 19 2018

.REST OF TODAY...Sunny. Not as cool with highs in the upper 50s.
Southwest winds 10 to 15 mph with gusts up to 25 mph.
.TONIGHT...Mostly cloudy. A slight chance of showers after
midnight. Not as cool with lows in the mid 40s. Southwest winds
10 to 15 mph with gusts up to 30 mph. Chance of rain 20 percent.
.SATURDAY...Mostly cloudy. A chance of showers in the morning,
then showers likely in the afternoon. Highs in the lower 50s.
West winds 10 to 15 mph with gusts up to 30 mph. Chance of rain
70 percent.
.SATURDAY NIGHT...Mostly cloudy. Rain showers likely in the
evening, then a chance of snow and rain showers after midnight.
Little or no snow accumulation. Cooler with lows in the lower
30s. Northwest winds 10 to 15 mph with gusts up to 30 mph. Chance
of precipitation 70 percent.
.SUNDAY...Mostly cloudy with a chance of snow showers in the
morning, then partly sunny in the afternoon. Colder with highs in
the upper 30s. Northwest winds 15 to 20 mph with gusts up to
30 mph. Chance of snow 40 percent.
.SUNDAY NIGHT...Mostly cloudy. Lows in the upper 20s.
.MONDAY...Mostly cloudy. Highs in the mid 40s.
.MONDAY NIGHT...Mostly cloudy. Lows in the mid 30s.
.TUESDAY...Mostly cloudy in the morning, then becoming partly
sunny. Highs in the upper 40s.
.TUESDAY NIGHT...Mostly cloudy. Lows in the mid 30s.
.WEDNESDAY...Partly sunny. Highs in the mid 40s.
.WEDNESDAY NIGHT...Partly cloudy. Lows around 30.
.THURSDAY...Mostly sunny. Highs in the mid 40s.


PAZ049-192000-
Union-
Including the city of Lewisburg
715 AM EDT Fri Oct 19 2018

...FREEZE WARNING IN EFFECT UNTIL 9 AM EDT THIS MORNING...

.REST OF TODAY...Widespread frost this morning. Sunny. Highs in
the upper 50s. West winds 5 to 10 mph, becoming southwest with
gusts up to 20 mph this afternoon.
.TONIGHT...Mostly cloudy. A chance of showers after midnight. Not
as cool with lows in the upper 40s. Southwest winds 5 to 10 mph
with gusts up to 25 mph. Chance of rain 50 percent.
.SATURDAY...Mostly cloudy. A chance of showers in the afternoon.
Highs in the upper 50s. West winds 10 to 15 mph with gusts up to
25 mph. Chance of rain 50 percent.
.SATURDAY NIGHT...Mostly cloudy with a 50 percent chance of
showers. Cooler with lows in the mid 30s. Northwest winds 10 to
15 mph with gusts up to 30 mph.
.SUNDAY...Mostly sunny. Cooler with highs in the upper 40s.
Northwest winds 10 to 15 mph with gusts up to 30 mph.
.SUNDAY NIGHT...Partly cloudy. Lows in the lower 30s.
.MONDAY...Mostly sunny. Highs in the lower 50s.
.MONDAY NIGHT...Partly cloudy in the evening, then becoming
mostly cloudy. Lows in the upper 30s.
.TUESDAY...Partly sunny. Highs in the mid 50s.
.TUESDAY NIGHT...Partly cloudy. Lows in the mid 30s.
.WEDNESDAY...Mostly sunny. Highs in the lower 50s.
.WEDNESDAY NIGHT...Mostly clear. Lows in the lower 30s.
.THURSDAY...Mostly sunny. Highs in the lower 50s.


PAZ004-192000-
Warren-
Including the city of Warren
715 AM EDT Fri Oct 19 2018

.REST OF TODAY...Sunny. Not as cool with highs in the mid 50s.
Southwest winds 10 to 15 mph with gusts up to 25 mph.
.TONIGHT...Cloudy. A chance of showers after midnight. Not as
cool with lows in the lower 40s. Southwest winds 10 to 15 mph
with gusts up to 30 mph. Chance of rain 50 percent.
.SATURDAY...Showers likely in the morning, then showers in the
afternoon. Highs around 50. West winds 10 to 15 mph with gusts up
to 30 mph. Chance of rain 90 percent.
.SATURDAY NIGHT...Rain showers in the evening. Snow showers.
Light snow accumulation. Colder with lows around 30. Northwest
winds 10 to 15 mph with gusts up to 25 mph. Chance of
precipitation 90 percent.
.SUNDAY...Mostly cloudy with a chance of snow showers. A chance
of rain showers in the afternoon. Highs in the lower 40s.
Northwest winds around 10 mph with gusts up to 25 mph. Chance of
precipitation 50 percent.
.SUNDAY NIGHT...Mostly cloudy. A chance of rain and snow showers
in the evening. Lows in the lower 30s. Chance of precipitation
30 percent.
.MONDAY...Partly sunny. Highs in the upper 40s.
.MONDAY NIGHT...Mostly cloudy. Lows in the upper 30s.
.TUESDAY...Mostly cloudy in the morning, then becoming partly
sunny. Highs around 50.
.TUESDAY NIGHT...Mostly cloudy. Lows in the mid 30s.
.WEDNESDAY...Mostly sunny. Highs in the upper 40s.
.WEDNESDAY NIGHT...Partly cloudy. Lows in the lower 30s.
.THURSDAY...Mostly sunny. Highs in the upper 40s.


PAZ065-192000-
York-
Including the city of York
715 AM EDT Fri Oct 19 2018

...FROST ADVISORY IN EFFECT UNTIL 9 AM EDT THIS MORNING...

.REST OF TODAY...Patchy frost this morning. Sunny. Highs in the
upper 50s. Southwest winds 5 to 10 mph.
.TONIGHT...Showers after midnight. Not as cool with lows in the
lower 50s. Southwest winds 5 to 10 mph with gusts up to 20 mph.
Chance of rain near 100 percent.
.SATURDAY...Mostly cloudy in the morning, then becoming partly
sunny. Highs in the lower 60s. West winds 10 to 15 mph with gusts
up to 30 mph.
.SATURDAY NIGHT...Mostly cloudy with a 50 percent chance of
showers. Cooler with lows around 40. Northwest winds 10 to 15 mph
with gusts up to 25 mph.
.SUNDAY...Mostly sunny. Cooler with highs in the upper 40s.
Northwest winds 15 to 20 mph with gusts up to 30 mph.
.SUNDAY NIGHT...Mostly clear. Lows in the mid 30s.
.MONDAY...Sunny. Highs in the lower 50s.
.MONDAY NIGHT...Partly cloudy. Lows around 40.
.TUESDAY...Mostly sunny. Highs in the upper 50s.
.TUESDAY NIGHT...Mostly clear. Lows around 40.
.WEDNESDAY...Sunny. Highs in the mid 50s.
.WEDNESDAY NIGHT...Mostly clear. Lows in the mid 30s.
.THURSDAY...Sunny. Highs in the lower 50s.


SCZ050-WAZ558-NCZ071-TXZ119-213-PAZ071-DCZ001-FLZ074-172-MI076-
NYZ176-178-MAZ016-IL014-TNZ027-NJZ106-GAZ044-MD014-191200-

...Gateway Observations for Charleston International...

CITY           SKY/WX    TMP DP  RH WIND       PRES   REMARKS
Chas Airport   MOCLDY    56  51  84 N9        30.30S
Seattle        CLEAR     47  43  86 CALM      30.24S
Charlotte      FAIR      43  42  97 N6        30.37S
Dallas DFW     RAIN      56  54  93 NE5       30.20S FOG
Dallas Love    CLOUDY    59  55  87 N3        30.22R
Philladelphia  FAIR      42  38  85 SW6       30.36S
Wash National  FAIR      45  39  79 SW3       30.38F
Baltimore      FAIR      36  35  96 CALM      30.37S
Miami          FAIR      78  75  90 E8        30.12R
Detroit        FAIR      40  30  67 S8        30.22F WCI  34
Newark         FAIR      35  31  85 SW5       30.32S WCI  31
Laguardia      FAIR      47  31  53 SW8       30.30S
J F K          FAIR      44  36  73 W10       30.33R
Boston Logan   FAIR      38  27  64 SW13      30.24S WCI  30
Ft. Lauderdale FAIR      79  74  84 E10       30.11R
Chicago O'Hare MOCLDY    46  31  55 SW14      30.16F
Chicago Midway CLOUDY    46  30  53 SW9G21    30.18F
Houston Bush   CLOUDY    65  60  84 NE6       30.15S
Houston Hobby  MOCLDY    66  59  78 NE6       30.13S
Nashville      FAIR      41  38  89 CALM      30.31S
Atlanta        MOCLDY    53  45  74 E9        30.32S


GAZ044-118-TXZ119-213-NCZ071-DCZ001-MDZ014-506-PAZ021-071-NJZ106-
NYZ176-178-MAZ106-OHZ011-021-055-MIZ076-KYZ091-ILZ014-INZ047-
MNZ060-ONZ431-191200-

...Gateway Observations for Savannah International...

CITY           SKY/WX    TMP DP  RH WIND       PRES   REMARKS
Savannah Arpt  CLOUDY    63  53  70 NE8       30.28S
Atlanta        MOCLDY    53  45  74 E9        30.32S
Charlotte      FAIR      43  42  97 N6        30.37S
Dallas DFW     RAIN      56  54  93 NE5       30.20S FOG
Houston Bush   CLOUDY    65  60  84 NE6       30.15S
Wash National  FAIR      45  39  79 SW3       30.38F
Wash Dulles    FAIR      35  34  96 CALM      30.37S
Baltimore      FAIR      36  35  96 CALM      30.37S
Philadelphia   FAIR      42  38  85 SW6       30.36S
Newark         FAIR      35  31  85 SW5       30.32S WCI  31
Laguardia      FAIR      47  31  53 SW8       30.30S
J F K          FAIR      44  36  73 W10       30.33R
Boston         FAIR      38  27  64 SW13      30.24S WCI  30
Pittsburg      FAIR      33  29  85 CALM      30.32S
Akron          FAIR      35  27  72 S7        30.30F WCI  29
Cleveland      FAIR      41  31  67 SW10      30.29F
Cincinnati     FAIR      34  31  88 CALM      30.31F
Columbus       FAIR      30  29  96 CALM      30.32F
Detroit        FAIR      40  30  67 S8        30.22F WCI  34
Chicago O'Hare MOCLDY    46  31  55 SW14      30.16F
Minneapolis    FAIR      54  47  77 SW10G21   29.85F
Indianapolis   FAIR      38  36  92 CALM      30.28F
Toronto Canada PTCLDY    43  32  65 SW12G18   30.11F